Printer-friendly version

IAU Minor Planet Center

Minor Planet Center

MPEC 2005-U95 : 2005 UJ6

The following Minor Planet Electronic Circular may be linked-to from your own Web pages, but must not otherwise be redistributed electronically.


Read MPEC 2005-U94 Read MPEC 2005-U96


M.P.E.C. 2005-U95                                Issued 2005 Oct. 30, 15:53 UT

     The Minor Planet Electronic Circulars contain information on unusual
         minor planets and routine data on comets.  They are published
   on behalf of Commission 20 of the International Astronomical Union by the
          Minor Planet Center, Smithsonian Astrophysical Observatory,
                          Cambridge, MA 02138, U.S.A.

                  Supported in part by the Brinson Foundation
                  Supported in part by the TABASGO Foundation
             Prepared using the Tamkin Foundation Computer Network

                              MPC@CFA.HARVARD.EDU
          URL http://cfa-www.harvard.edu/iau/mpc.html  ISSN 1523-6714

                                   2005 UJ6

Observations:
     K05U06J* C2005 10 28.29385 02 19 52.71 +01 38 47.4          20.1 V EU095703
     K05U06J  C2005 10 28.29766 02 19 51.49 +01 38 49.0          20.1 V EU095703
     K05U06J  C2005 10 28.30149 02 19 50.37 +01 38 53.7          19.6 V EU095703
     K05U06J  C2005 10 28.30532 02 19 49.26 +01 38 58.2          20.0 V EU095703
     K05U06J  C2005 10 28.33015 02 19 41.88 +01 39 18.6          19.6 V EU095703
     K05U06J  C2005 10 28.33653 02 19 39.97 +01 39 24.6          20.4 V EU095703
     K05U06J  C2005 10 28.34289 02 19 38.13 +01 39 27.3          20.1 V EU095703
     K05U06J  C2005 10 28.34923 02 19 36.19 +01 39 34.1          19.9 V EU095703
     K05U06J  C2005 10 29.26792 02 15 08.97 +01 52 59.6          20.0 R EU095734
     K05U06J  C2005 10 29.27380 02 15 07.12 +01 53 04.8          20.1 R EU095734
     K05U06J  C2005 10 29.30384 02 14 58.38 +01 53 34.8          20.4 V EU095G96
     K05U06J  C2005 10 29.31153 02 14 56.00 +01 53 41.6          20.8 V EU095G96
     K05U06J  C2005 10 29.31921 02 14 53.62 +01 53 48.5          20.7 V EU095G96
     K05U06J  C2005 10 29.32721 02 14 51.18 +01 53 55.8          20.8 V EU095G96
     K05U06J  C2005 10 30.24347 02 10 16.58 +02 08 05.8          20.3 R EU095651
     K05U06J  C2005 10 30.24736 02 10 15.33 +02 08 07.8          20.5 R EU095651
     K05U06J  C2005 10 30.24830 02 10 15.19 +02 08 10.1          20.3 R EU095651
     K05U06J  C2005 10 30.30767 02 09 56.30 +02 09 04.9          19.0 V EU095G96
     K05U06J  C2005 10 30.31567 02 09 53.78 +02 09 12.7          19.2 V EU095G96
     K05U06J  C2005 10 30.32363 02 09 51.26 +02 09 20.5          19.4 V EU095G96
     K05U06J  C2005 10 30.33165 02 09 48.74 +02 09 28.0          19.0 V EU095G96

Observer details:
651 Grasslands Observatory, Tucson.  Observer J. E. McGaha.  0.62-m f/5.1
    Newtonian reflector + CCD.
703 Catalina Sky Survey.  Observer R. A. Kowalski.  Measurers E. C. Beshore,
    E. J. Christensen, G. J. Garradd, A. D. Grauer, R. E. Hill, R. A. Kowalski,
    S. M. Larson, R. H. McNaught.  0.68-m Schmidt + CCD.
734 Farpoint Observatory.  Observer D. Tibbets.  0.7-m reflector + CCD.
G96 Mt. Lemmon Survey.  Observers E. J. Christensen, S. M. Larson,
    R. A. Kowalski.  Measurers E. C. Beshore, E. J. Christensen, G. J. Garradd,
    A. D. Grauer, R. E. Hill, R. A. Kowalski, S. M. Larson, R. H. McNaught.
    1.5-m reflector + CCD.

Orbital elements:
2005 UJ6
Epoch 2005 Oct. 17.0 TT = JDT 2453660.5                 MPC
M 247.84854              (2000.0)            P               Q
n   0.90360804     Peri.  131.02313     -0.96951082     -0.13015130
a   1.0596180      Node    42.73134     -0.01639973     -0.81093263
e   0.3988977      Incl.   17.81729     +0.24449911     -0.57048129
P   1.09           H   21.7           G   0.15
From 21 observations 2005 Oct. 28-30.

Ephemeris:
2005 UJ6                 a,e,i = 1.06, 0.40, 18                  q = 0.6369
Date    TT    R. A. (2000) Decl.     Delta      r     Elong.  Phase     V
2005 10 27    02 25.92   +01 21.3    0.298    1.286   167.6     9.6    20.2
2005 11 06    01 32.95   +04 12.7    0.260    1.237   158.9    16.8    20.1
2005 11 16    00 32.81   +08 03.5    0.248    1.183   136.9    34.8    20.5
2005 11 26    23 38.70   +12 01.1    0.259    1.123   115.5    52.5    20.9
2005 12 06    22 56.63   +15 34.2    0.280    1.058    97.4    67.4    21.4
2005 12 16    22 23.96   +18 37.7    0.303    0.990    82.2    80.1    21.9

Brian G. Marsden             (C) Copyright 2005 MPC           M.P.E.C. 2005-U95

Read MPEC 2005-U94 Read MPEC 2005-U96


Our Web policy. Index to the CBAT/MPC/ICQ pages.


Valid HTML 4.01!